User: anonymous   Login
Location: Del Amo
(33.8464°N, 118.2104°W)
Time: 08:29:01
(UTC+00:00)
Language:

METEOR M2 - Orbit

View from above orbital plane
View from above orbital plane
View from above satellite
View from above satellite

Ground track
Ground track

The orbit data is extracted from the following two-line orbital elements,

1 40069U 14037A   24280.91496191  .00000711  00000-0  34658-3 0  9998
2 40069  98.4468 270.2157 0006592  43.0122 317.1570 14.21081791531498
Epoch (UTC): 06 October 2024 21:57:32
Eccentricity: 0.0006592
inclination: 98.4468°
perigee height: 817 km
apogee height: 826 km
right ascension of ascending node: 270.2157°
argument of perigee: 43.0122°
revolutions per day: 14.21081791
mean anomaly at epoch: 317.1570°
orbit number at epoch: 53149

The dashed part of the orbit path shows where the satellite is in the earth's shadow,  

DLR